[[{"header":{"parameterUnit":"m.s-1","parameterCategory":1,"la1":30.2991,"la2":30.254,"lo1":-89.0895,"lo2":-89.0444,"dy":0.0017,"dx":0.0017,"nx":28,"ny":28,"refTime":"2025-03-19T09:00:00:Z","depth":0,"parameterNumber":2,"parameterNumberName":"U-component_of_WINDS"},"data":[0,0,0,0,0,0,0,0,0,0,0,0,0,0,0,0,0,0,0,0,0,0,0,0,0,0,0,0,0,0,0,0,0,0,0,0,0,0,0,0,0,0,0,0,0,0,0,0,0,0,0,0,0,0,0,0,0,0,5.8663,5.8663,0,5.8636,5.8636,5.8635,5.8544,5.8542,5.854,5.8538,5.851,5.8512,5.8513,0,0,0,0,0,0,0,0,0,0,0,0,0,5.8638,5.8639,5.8663,5.8663,5.8662,5.8636,5.8636,5.8635,5.8544,5.8542,5.8539,5.8537,5.851,5.8511,5.8513,0,0,0,0,0,0,0,0,0,0,0,0,0,5.8634,5.8639,5.8663,5.8614,5.8609,5.8636,5.8636,5.8635,5.8545,5.8542,5.8539,5.8536,5.851,5.8511,5.8513,5.8585,0,0,5.8518,5.8519,0,0,0,0,0,0,0,0,5.8634,5.8635,5.8621,5.8617,5.8612,5.859,5.8616,5.8618,5.8546,5.8569,5.8538,5.8534,5.8539,5.8539,5.854,5.8584,5.8583,5.8518,5.852,5.852,5.8521,0,0,0,0,0,0,0,5.8635,5.8636,5.8652,5.8621,5.8616,5.8594,5.859,5.8616,5.8572,5.8567,5.856,5.8558,5.8536,5.8539,5.8539,5.8582,5.8518,5.852,5.8521,5.8522,5.8686,5.8689,0,0,0,0,0,0,5.8642,5.8636,5.8653,5.8651,5.8616,5.8597,5.8592,5.86,5.8571,5.8564,5.8561,5.8554,5.8537,5.8537,5.8538,5.8621,5.852,5.8522,5.8523,5.8683,5.8687,5.869,0,0,0,0,0,0,5.8642,5.8644,5.8654,5.8642,5.8642,5.86,5.861,5.8601,5.8604,5.8567,5.8559,5.8572,5.8535,5.8535,5.8574,5.8619,5.8523,5.8524,5.8679,5.8684,5.8688,5.8788,0,0,0,0,0,0,5.8641,5.8645,5.8671,5.8643,5.8643,5.8691,5.8613,5.8603,5.8607,5.8598,5.8574,5.8568,5.8532,5.8572,5.8576,5.8619,5.8526,5.8675,5.8681,5.8687,5.8781,5.8796,5.8809,0,0,0,0,0,5.8641,5.87,5.8673,5.8675,5.8675,5.8694,5.8693,5.8652,5.8611,5.8637,5.8614,5.8568,5.8614,5.8577,5.8581,5.8625,5.8672,5.8679,5.8686,5.8774,5.8793,5.8808,0,0,0,0,0,0,5.8733,5.8695,5.8665,5.8716,5.8709,5.8678,5.871,5.8672,5.8676,5.8668,5.8616,5.8611,5.8658,5.8646,5.8606,5.8694,5.8635,5.8644,5.8701,5.8718,5.8732,5.8734,5.8527,0,0,0,0,0,5.8759,5.8778,5.8744,5.8793,5.8791,5.8752,5.8758,5.8727,5.8717,5.8714,5.8693,5.8686,5.8698,5.8708,5.8717,5.8779,5.8773,5.8812,5.8826,5.8837,5.8845,5.8878,5.8895,5.8715,5.8715,5.8714,0,0,5.8814,5.8795,5.881,5.8811,5.8801,5.8822,5.875,5.8774,5.8789,5.8717,5.8753,5.8739,5.8727,5.8779,5.88,5.8769,5.8894,5.8847,5.8857,5.8858,5.8888,5.8905,5.892,5.872,5.8719,5.8718,0,0,5.8923,5.8911,5.8951,5.8944,5.8931,5.8905,5.8916,5.8891,5.8879,5.8914,5.8861,5.8879,5.8902,5.8896,5.8896,5.9008,5.8966,5.9012,5.9085,5.9118,5.9133,5.9145,5.9185,5.92,5.902,5.9021,5.9021,0,5.8992,5.9021,5.8977,5.9006,5.9008,5.8945,5.8986,5.8981,5.8973,5.8976,5.8942,5.897,5.8958,5.9008,5.9035,5.9037,5.9048,5.9014,5.9134,5.9146,5.9157,5.9195,5.921,5.9026,5.9026,5.9025,5.9024,0,5.9108,5.9129,5.9163,5.9157,5.9163,5.9198,5.916,5.9172,5.9141,5.9119,5.9157,5.9141,5.9147,5.9157,5.9126,5.9203,5.9184,5.9143,5.9082,5.9181,5.9215,5.9229,5.9034,5.9032,5.9031,5.9029,0,0,5.9272,5.9243,5.9256,5.9253,5.9236,5.9252,5.9285,5.9291,5.9303,5.93,5.9326,5.9348,5.9311,5.9311,5.928,5.9309,5.94,5.9265,5.9264,5.929,5.9484,5.9515,5.9532,5.9373,5.9375,5.9377,5.9485,0,5.9376,5.943,5.9392,5.9453,5.9473,5.9415,5.9444,5.9437,5.9419,5.9433,5.9412,5.9429,5.9378,5.9378,5.9404,5.9383,5.9438,5.9375,5.9397,5.9398,5.9401,5.955,5.9582,5.9684,5.9498,5.9501,5.9502,0,5.9504,5.9508,5.9571,5.9552,5.9558,5.9585,5.9589,5.9603,5.9595,5.958,5.9582,5.9544,5.9576,5.9518,5.9561,5.9519,5.9527,5.9518,5.9521,5.952,5.9455,5.9553,5.9715,5.9731,5.9523,5.9521,5.952,0,5.9618,5.9639,5.968,5.9679,5.9657,5.9678,5.967,5.9659,5.9666,5.9669,5.9673,5.9681,5.9685,5.9692,5.9658,5.9618,5.9706,5.9644,5.9694,5.9695,5.9714,5.9713,5.9879,5.9721,5.972,5.972,5.972,0,5.9738,5.9779,5.9731,5.9756,5.98,5.9758,5.9803,5.9789,5.978,5.9802,5.9753,5.9774,5.9728,5.9745,5.9719,5.976,5.9762,5.9751,5.9743,5.9754,5.9756,5.9757,5.9749,5.9724,5.9723,5.9722,5.9722,0,5.9872,5.9841,5.9882,5.9859,5.9855,5.9888,5.9869,5.9892,5.9871,5.9899,5.9903,5.9871,5.9889,5.9856,5.9869,5.9852,5.9909,5.989,5.9911,5.9906,5.9957,5.9953,6.013,6.0151,5.9979,5.9981,5.9982,0,5.995,5.998,5.9961,5.9973,5.9968,5.9986,5.9994,5.9954,5.9964,5.9958,5.9982,5.9996,6.0005,6.0036,6.0014,6.0025,6.0006,6.0067,6.0007,6.0018,6.0006,6.0005,6.0008,6.0079,6.0081,6.0083,6.0084,0,6.0092,6.0076,6.0088,6.0096,6.0106,6.0111,6.0111,6.0124,6.0082,6.0095,6.0113,6.0121,6.0135,6.015,6.0156,6.0148,6.011,6.0104,6.0116,6.0127,6.0138,6.0133,5.9945,6.0099,6.0098,6.0097,6.0096,6.0095,6.0199,6.0224,6.0216,6.0231,6.0228,6.0231,6.0251,6.0234,6.0249,6.0258,6.0234,6.0258,6.0251,6.0255,6.0252,6.027,6.0243,6.026,6.0265,6.0269,6.0278,6.0137,6.0271,6.0271,6.027,6.027,6.027,0,6.0338,6.0331,6.0346,6.0349,6.0363,6.0327,6.0326,6.034,6.0362,6.0359,6.0369,6.0391,6.0406,6.0386,6.0397,6.0416,6.0399,6.0421,6.0418,6.0417,6.0301,6.029,6.0435,6.0435,6.0435,6.0435,6.0435,6.0434,6.0412,6.0453,6.0436,6.0475,6.0467,6.0491,6.0494,6.0496,6.0494,6.0521,6.0533,6.052,6.0511,6.0522,6.0534,6.0528,6.0534,6.0562,6.055,6.0442,6.0425,6.041,6.0399,6.0564,6.0564,6.0664,6.0665,6.0666]},{"header":{"parameterUnit":"m.s-1","parameterCategory":1,"la1":30.2991,"la2":30.254,"lo1":-89.0895,"lo2":-89.0444,"dy":0.0017,"dx":0.0017,"nx":28,"ny":28,"refTime":"2025-03-19T09:00:00:Z","depth":0,"parameterNumber":3,"parameterNumberName":"V-component_of_WINDS"},"data":[0,0,0,0,0,0,0,0,0,0,0,0,0,0,0,0,0,0,0,0,0,0,0,0,0,0,0,0,0,0,0,0,0,0,0,0,0,0,0,0,0,0,0,0,0,0,0,0,0,0,0,0,0,0,0,0,0,0,1.882,1.8823,0,1.9082,1.9085,1.9088,1.915,1.9148,1.9146,1.9145,1.9416,1.9424,1.9433,0,0,0,0,0,0,0,0,0,0,0,0,0,1.8372,1.838,1.882,1.8823,1.8827,1.9082,1.9085,1.9089,1.915,1.9148,1.9146,1.9144,1.9413,1.9423,1.9434,0,0,0,0,0,0,0,0,0,0,0,0,0,1.8594,1.8383,1.8819,1.8888,1.8897,1.9081,1.9086,1.909,1.9151,1.9148,1.9145,1.9143,1.9409,1.9422,1.9435,1.9571,0,0,1.9476,1.9482,0,0,0,0,0,0,0,0,1.8581,1.861,1.8875,1.8883,1.8894,1.9081,1.9027,1.9251,1.9151,1.9054,1.9145,1.9142,1.9306,1.9328,1.9383,1.9584,1.9595,1.9477,1.9485,1.9491,1.9495,0,0,0,0,0,0,0,1.8566,1.8599,1.8924,1.8878,1.889,1.8905,1.8934,1.907,1.9192,1.9063,1.9068,1.9098,1.9311,1.937,1.939,1.9599,1.9477,1.9489,1.9497,1.9502,1.9922,1.9925,0,0,0,0,0,0,1.8538,1.8586,1.8916,1.8932,1.8727,1.8916,1.8948,1.9023,1.9191,1.9214,1.91,1.91,1.9349,1.9374,1.94,1.9569,1.9491,1.9503,1.9511,1.9919,1.9923,1.9926,0,0,0,0,0,0,1.8528,1.8567,1.8905,1.876,1.8805,1.8926,1.9011,1.903,1.9089,1.9219,1.9241,1.9138,1.9348,1.9381,1.9527,1.9579,1.9509,1.9521,1.9915,1.992,1.9925,1.9909,0,0,0,0,0,0,1.8515,1.8563,1.8616,1.8761,1.8812,1.9028,1.9014,1.9037,1.9112,1.9114,1.9261,1.9282,1.9348,1.9507,1.9541,1.9597,1.9532,1.9911,1.9918,1.9923,1.9906,1.9913,1.9919,0,0,0,0,0,1.8499,1.8603,1.8619,1.8658,1.8881,1.9031,1.9061,1.9134,1.9116,1.917,1.9253,1.9278,1.9567,1.9522,1.956,1.962,1.9908,1.9916,1.9923,1.9903,1.9911,1.9919,0,0,0,0,0,0,1.8463,1.8623,1.8643,1.8796,1.8899,1.9041,1.9113,1.9141,1.9252,1.925,1.9336,1.9369,1.9509,1.9579,1.9525,1.9759,1.9738,1.9753,1.9709,1.9719,1.9725,1.9706,1.9543,0,0,0,0,0,1.8472,1.858,1.8715,1.8837,1.8887,1.899,1.9059,1.9106,1.9217,1.9261,1.9355,1.9462,1.9577,1.9651,1.9765,1.9915,1.9947,1.9975,1.9982,1.9986,1.9999,2.0082,2.0096,1.995,1.995,1.995,0,0,1.8494,1.8594,1.8658,1.8832,1.8918,1.9028,1.9027,1.9145,1.9227,1.9279,1.9423,1.9495,1.962,1.9768,1.9838,1.9831,2.0046,1.9996,1.9998,2.0009,2.0091,2.0105,2.0117,1.9955,1.9954,1.9953,0,0,1.8589,1.8676,1.8787,1.8872,1.9001,1.9068,1.9094,1.9232,1.9281,1.9426,1.9467,1.9566,1.9763,1.985,1.9919,2.0043,2.007,2.0077,2.0113,2.0193,2.0205,2.0216,2.026,2.0274,2.0089,2.0089,2.0089,0,1.86,1.8768,1.8841,1.8955,1.903,1.908,1.9193,1.9272,1.9431,1.9481,1.947,1.9716,1.9804,1.9973,2.0002,2.0057,2.009,2.0063,2.0197,2.0209,2.022,2.0263,2.0279,2.0089,2.0089,2.0089,2.0089,0,1.8774,1.8889,1.8963,1.9114,1.9197,1.931,1.94,1.9475,1.9513,1.9581,1.9727,1.9833,1.9968,2.0011,2.0051,2.0185,2.0176,2.018,2.016,2.0232,2.0274,2.0291,2.0089,2.0089,2.0089,2.0089,0,0,1.8858,1.9045,1.9071,1.9139,1.9283,1.9374,1.9487,1.9618,1.968,1.9787,1.9885,2.0048,2.0052,2.0131,2.018,2.025,2.034,2.0245,2.0249,2.026,2.0494,2.0491,2.0509,2.0358,2.0361,2.0364,2.0484,0,1.8971,1.9177,1.9244,1.9415,1.9522,1.9569,1.9668,1.9767,1.9832,1.9932,2.0005,2.0119,2.0115,2.0163,2.0234,2.0314,2.0389,2.0306,2.045,2.0454,2.0419,2.0531,2.053,2.0638,2.0501,2.0503,2.0505,0,1.9133,1.924,1.9421,1.9549,1.9597,1.9685,1.9809,1.9903,2.0015,2.0058,2.0144,2.0187,2.0307,2.0277,2.0444,2.0386,2.0448,2.0496,2.0502,2.052,2.0486,2.0553,2.0674,2.0691,2.0532,2.053,2.0528,0,1.9176,1.9366,1.9498,1.9555,1.9708,1.9769,1.9835,1.9944,2.0017,2.0125,2.0173,2.0294,2.036,2.0452,2.0526,2.0497,2.0685,2.0662,2.0724,2.0722,2.0764,2.0761,2.0898,2.0801,2.0801,2.0801,2.08,0,1.9297,1.9406,1.9519,1.9601,1.9724,1.9799,1.9919,1.9988,2.0084,2.0179,2.0227,2.0315,2.0407,2.0507,2.0565,2.0694,2.0723,2.0761,2.0776,2.0758,2.0753,2.0802,2.0796,2.0805,2.0804,2.0803,2.0803,0,1.9367,1.9447,1.9595,1.9726,1.9761,1.9846,1.9958,2.0039,2.0105,2.0225,2.0257,2.0361,2.0481,2.0563,2.0718,2.0757,2.0896,2.0909,2.0858,2.0866,2.0923,2.0917,2.1098,2.1125,2.1008,2.1009,2.101,0,1.9439,1.9524,1.9663,1.973,1.9796,1.9904,1.9978,2.0054,2.0129,2.0261,2.0326,2.0448,2.0551,2.0741,2.083,2.0948,2.0964,2.1019,2.0983,2.0961,2.0966,2.096,2.0969,2.1026,2.1027,2.1027,2.1028,0,1.956,1.9594,1.9699,1.9818,1.9904,2.0001,2.0099,2.0151,2.0244,2.0326,2.0448,2.0528,2.0684,2.0805,2.0931,2.0999,2.1029,2.1038,2.1059,2.1043,2.101,2.1029,2.0875,2.1034,2.1034,2.1033,2.1033,2.1033,1.9634,1.9711,1.982,1.9935,2.0015,2.0104,2.0186,2.0261,2.0364,2.0497,2.0535,2.0663,2.077,2.0941,2.1011,2.1112,2.1107,2.1137,2.1145,2.1151,2.1151,2.0992,2.1135,2.1135,2.1134,2.1134,2.1134,0,1.9757,1.9829,1.9933,2.0067,2.0157,2.0175,2.0283,2.0357,2.0468,2.0565,2.0664,2.0804,2.0921,2.1018,2.1138,2.12,2.1217,2.1229,2.1226,2.1241,2.1149,2.1119,2.1213,2.1213,2.1213,2.1213,2.1213,2.1213,1.9832,1.9962,2.0009,2.0179,2.0251,2.0375,2.0435,2.0517,2.0595,2.0749,2.0845,2.0907,2.1004,2.1131,2.1239,2.1264,2.1307,2.1316,2.1345,2.1257,2.1248,2.124,2.1212,2.1325,2.1325,2.143,2.143,2.1431]}]]